EW8383 Weather Reports


time (UTC)temp
F
wind
direction
speed
knots
gust
knots
rain 1hr
in
rain 24hr
in
rain mn
in
humidity
%
barometer
mb
20260505070100 49 59 8.7 0.0 0.00 0.00 0.00 66 1006.1
20260505064543 50 53 9.6 0.0 0.00 0.00 0.00 61 1005.9
20260505063042 50 24 9.6 0.0 0.00 0.00 0.00 60 1005.8
20260505061554 51 44 9.6 0.0 0.00 0.00 0.00 62 1005.5
20260505060035 52 66 10.4 0.0 0.00 0.00 0.00 60 1005.1
20260505054543 52 55 13.9 0.0 0.00 0.00 0.00 58 1005.0
20260505053028 54 40 8.7 0.0 0.00 0.00 0.00 54 1004.6
20260505041517 56 51 12.2 0.0 0.00 0.00 0.00 50 1003.3
20260505040034 56 61 10.4 0.0 0.00 0.00 0.00 51 1003.3
20260505034520 57 53 14.8 0.0 0.00 0.00 0.00 50 1003.1
20260505033016 58 24 13.0 0.0 0.00 0.00 0.00 46 1003.1
20260505031514 60 61 13.0 0.0 0.00 0.00 0.00 42 1002.9
20260505030017 61 38 13.0 0.0 0.00 0.00 0.00 40 1002.6
20260505024513 62 9 11.3 0.0 0.00 0.00 0.00 37 1002.5
20260505023013 63 37 12.2 0.0 0.00 0.00 0.00 36 1001.9
20260505021513 63 52 12.2 0.0 0.00 0.00 0.00 35 1001.7
20260505020015 63 44 13.0 0.0 0.00 0.00 0.00 35 1001.3
20260505014514 64 30 13.9 0.0 0.00 0.00 0.00 35 1000.8
20260505013011 65 38 11.3 0.0 0.00 0.00 0.00 34 1000.7
20260505011511 66 43 13.0 0.0 0.00 0.00 0.00 34 999.9
20260505010010 66 26 14.8 0.0 0.00 0.00 0.00 34 999.8
20260505004515 67 48 11.3 0.0 0.00 0.00 0.00 35 1000.4
20260505003009 68 29 13.0 0.0 0.00 0.00 0.00 33 1000.5
20260505001508 70 5 7.8 0.0 0.00 0.00 0.00 29 1000.3
20260505000008 71 46 12.2 0.0 0.00 0.00 0.00 29 1000.0
20260504234510 72 32 13.0 0.0 0.00 0.00 0.00 29 999.2
20260504233007 73 42 13.9 0.0 0.00 0.00 0.00 29 998.5
20260504231506 74 52 13.9 0.0 0.00 0.00 0.00 28 997.9
20260504230006 74 43 15.6 0.0 0.00 0.00 0.00 27 997.4
20260504224507 76 61 11.3 0.0 0.00 0.00 0.00 26 997.2
20260504223005 79 355 7.8 0.0 0.00 0.00 0.00 20 996.9
20260504221503 79 346 7.0 0.0 0.00 0.00 0.00 15 996.8
20260504214502 80 345 6.1 0.0 0.00 0.00 0.00 15 997.0
20260504213002 80 36 4.3 0.0 0.00 0.00 0.00 15 997.1
20260504211558 81 9 4.3 0.0 0.00 0.00 0.00 15 997.4
20260504210104 81 351 4.3 0.0 0.00 0.00 0.00 15 997.5
20260504204602 80 324 6.1 0.0 0.00 0.00 0.00 15 997.9
20260504203056 79 42 3.5 0.0 0.00 0.00 0.00 16 998.0
20260504201548 79 174 4.3 0.0 0.00 0.00 0.00 14 998.2
20260504200047 79 132 3.5 0.0 0.00 0.00 0.00 15 998.4
20260504194547 78 211 7.0 0.0 0.00 0.00 0.00 15 998.5
20260504193058 78 240 7.0 0.0 0.00 0.00 0.00 15 998.6
20260504191543 80 267 2.6 0.0 0.00 0.00 0.00 15 998.8
20260504190042 78 63 6.1 0.0 0.00 0.00 0.00 16 999.1
20260504184539 78 25 5.2 0.0 0.00 0.00 0.00 17 999.2
20260504183041 77 94 4.3 0.0 0.00 0.00 0.00 17 999.4
20260504181535 77 82 4.3 0.0 0.00 0.00 0.00 18 999.7
20260504180030 75 61 4.3 0.0 0.00 0.00 0.00 20 999.8
20260504174527 75 71 6.1 0.0 0.00 0.00 0.00 20 1000.3
20260504173025 75 42 5.2 0.0 0.00 0.00 0.00 20 1000.5
20260504171523 74 59 7.0 0.0 0.00 0.00 0.00 18 1000.8
20260504081505 48 209 0.9 0.0 0.00 0.00 0.00 57 1001.8